Location: Strada George Coșbuc
(47.6577°N, 23.5639°E)
Time: 01:24:30
(UTC+03:00)

ISS - Pass Details

Date: 30 September 2017
Orbit: 401 x 407 km, 51.6° (Epoch: 23 September)

Event Time Altitude Azimuth Distance (km) Brightness Sun altitude
Rises 19:33:15 0° 230° (SW) 2,308 0.9 -5.2°
Reaches altitude 10° 19:35:21 10° 225° (SW) 1,453 -0.3 -5.6°
Maximum altitude 19:38:30 50° 149° (SSE) 520 -3.5 -6.1°
Drops below altitude 10° 19:41:42 10° 72° (ENE) 1,463 -1.6 -6.7°
Enters shadow 19:42:11 - 71° (ENE) 1,660 -1.3 -6.7°
